This is the latest recevied weather packets stored in our database for station/object K1BES. If no packets are shown the sender has not sent any weather packets the latest 10 day(s).
| Time | Temp. | Humidity | Pressure | Rain* | Wind** | Luminosity | Snow |
|---|---|---|---|---|---|---|---|
| 1787933074 | 33.89° C | 59% | 1020.8 hPa | 0 mm | - | 910 W/m² | - |
| 1787932773 | 33.89° C | 58% | 1021 hPa | 0 mm | - | 898 W/m² | - |
| 1787932473 | 34.44° C | 57% | 1020.7 hPa | 0 mm | - | 885 W/m² | - |
| 1787932168 | 34.44° C | 57% | 1020.9 hPa | 0 mm | - | 874 W/m² | - |
| 1787931866 | 34.44° C | 57% | 1020.9 hPa | 0 mm | - | 861 W/m² | - |
| 1787931561 | 33.89° C | 57% | 1020.8 hPa | 0 mm | - | 845 W/m² | - |
| 1787931256 | 35° C | 56% | 1020.9 hPa | 0 mm | - | 833 W/m² | - |
| 1787930956 | 35° C | 54% | 1020.5 hPa | 0 mm | - | 820 W/m² | - |
| 1787930655 | 34.44° C | 56% | 1020.7 hPa | 0 mm | - | 806 W/m² | - |
| 1787930350 | 34.44° C | 55% | 1020.6 hPa | 0 mm | - | 791 W/m² | - |
| 1787930045 | 34.44° C | 55% | 1020.4 hPa | 0 mm | - | 773 W/m² | - |
| 1787929743 | 34.44° C | 54% | 1020.4 hPa | 0 mm | - | 760 W/m² | - |
| 1787929438 | 33.89° C | 56% | 1020.2 hPa | 0 mm | - | 741 W/m² | - |
| 1787929136 | 33.89° C | 56% | 1020.5 hPa | 0 mm | - | 724 W/m² | - |
| 1787928832 | 34.44° C | 58% | 1020.4 hPa | 0 mm | - | 704 W/m² | - |
| 1787928531 | 33.89° C | 57% | 1020.3 hPa | 0 mm | - | 689 W/m² | - |
| 1787928230 | 33.89° C | 58% | 1020.5 hPa | 0 mm | - | 671 W/m² | - |
| 1787927928 | 34.44° C | 56% | 1020.4 hPa | 0 mm | - | 654 W/m² | - |
| 1787927623 | 33.89° C | 55% | 1020.1 hPa | 0 mm | - | 634 W/m² | - |
| 1787927318 | 33.89° C | 56% | 1020.3 hPa | 0 mm | - | 613 W/m² | - |
| 1787927015 | 33.89° C | 57% | 1020.2 hPa | 0 mm | - | 594 W/m² | - |
| 1787926714 | 33.89° C | 56% | 1020.1 hPa | 0 mm | - | 576 W/m² | - |
| 1787926413 | 33.33° C | 57% | 1020 hPa | 0 mm | - | 556 W/m² | - |
| 1787926108 | 33.33° C | 56% | 1020.3 hPa | 0 mm | - | 537 W/m² | - |
| 1787925807 | 33.33° C | 58% | 1019.9 hPa | 0 mm | - | 516 W/m² | - |
* Rain latest hour (hover to see other rain measurements)
** Current wind speed in m/s (hover to see current wind gust speed)